Regional Weather Roundup
Issued by NWS

Home | Current Version | Previous Version | Graphics & Text | Print | Product List | Glossary Off
Versions: 1 2 3 4 5 6 7 8 9 10 11 12 13 14 15 16 17 18 19 20 21 22 23 24 25 26 27 28 29 30 31 32 33 34 35 36 37 38 39 40 41 42 43 44 45 46 47 48 49 50

000
ASUS43 KMKX 041900
RWRWI

WISCONSIN REGIONAL WEATHER ROUNDUP
NATIONAL WEATHER SERVICE MILWAUKEE/SULLIVAN WI
200 PM CDT WED MAY 04 2016

NOTE: "FAIR" INDICATES FEW OR NO CLOUDS BELOW 12,000 FEET WITH NO
SIGNIFICANT WEATHER AND/OR OBSTRUCTIONS TO VISIBILITY.

WIZ001-002-006>008-014>016-023>028-042000-
NORTHWEST WISCONSIN

CITY           SKY/WX    TMP DP  RH WIND       PRES   REMARKS
SUPERIOR ARPT  SUNNY     51  32  48 NE10      29.98R
ASHLAND        SUNNY     53  33  46 N14       29.98S
HAYWARD        SUNNY     58  19  22 NE20G25   29.94S
SIREN          SUNNY     61  21  21 N14G21    29.94F
CUMBERLAND     SUNNY     59  25  27 N15G23    29.93S
RICE LAKE      SUNNY     60  21  21 N21G26    29.93F
CHETEK         SUNNY     60  29  31 N14G23    29.92S
LADYSMITH      SUNNY     58  25  28 N17G28    29.92F
EAU CLAIRE     SUNNY     62  25  24 N16G26    29.90F
MENOMONIE      MOSUNNY   62  31  30 NW16G23   29.92F
NEW RICHMOND   SUNNY     62  27  26 NW16G24   29.94F
OSCEOLA        SUNNY     63  30  29 NW16      29.96F
$$

WIZ003>005-009-010-017-018-042000-
NORTH CENTRAL WISCONSIN

CITY           SKY/WX    TMP DP  RH WIND       PRES   REMARKS
MANITOWISH WTR CLOUDY    46  31  57 N15G21    29.93S
ARBOR VITAE    PTSUNNY   48  33  55 N13G24    29.92R
WOODRUFF       PTSUNNY   48  33  55 N13G24    29.92R
RHINELANDER    PTSUNNY   47  32  56 N13G22    29.91R
EAGLE RIVER    CLOUDY    42  30  61 N15       29.91R
LAND O LAKES   CLOUDY    42  32  67 N10G16    29.92S
PHILLIPS       SUNNY     51  28  40 N18       29.91S
TOMAHAWK       MOSUNNY   52  29  41 NW20G28   29.89S
MEDFORD        SUNNY     55  28  35 N21G29    29.87S
MERRILL        MOSUNNY   55  30  38 N20G25    29.86F
$$

WIZ029-030-035-036-043>047-042000-
CENTRAL WISCONSIN

CITY           SKY/WX    TMP DP  RH WIND       PRES   REMARKS
WAUSAU         SUNNY     58  28  32 N14G29    29.83F
MOSINEE        MOSUNNY   55  27  33 N20G35    29.86F
MARSHFIELD     SUNNY     61  28  28 N18G28    29.85F
STEVENS POINT  MOSUNNY   55  27  34 N20G29    29.84S
WAUPACA        MOSUNNY   57  32  38 N17G23    29.83S
WAUTOMA        CLOUDY    57  30  35 NW21G26   29.82F
WISC RAPIDS    SUNNY     60  25  26 N17G28    29.86S
CAMP DOUGLAS   NOT AVBL
$$

WIZ011>013-019>022-031-037>040-048>050-042000-
NORTHEAST WISCONSIN

CITY           SKY/WX    TMP DP  RH WIND       PRES   REMARKS
ANTIGO         CLOUDY    47  33  58 N20G28    29.86S
SHAWANO        CLOUDY    55  35  47 N18G24    29.83S
OCONTO         CLOUDY    49  34  56 N16G25    29.82S
STURGEON BAY   CLOUDY    46  34  61 N25       29.84S
GREEN BAY      CLOUDY    51  36  56 N20       29.82S
MANITOWOC      NOT AVBL
APPLETON       PTSUNNY   52  32  46 N18G29    29.81S
CLINTONVILLE   CLOUDY    54  32  43 N15G23    29.83S
OSHKOSH        CLOUDY    53  34  48 N18G31    29.81F
$$

WIZ032>034-041-042-053>061-042000-
SOUTHWEST WISCONSIN

CITY           SKY/WX    TMP DP  RH WIND       PRES   REMARKS
LA CROSSE      MOSUNNY   64  32  30 N21G28    29.88F
SPARTA         MOSUNNY   61  31  32 N14G24    29.87F
VIROQUA        MOSUNNY   58  32  38 N18G25    29.87F
BOSCOBEL       MOSUNNY   63  32  31 N16G29    29.86F
PRAIRIE DU CHI SUNNY     61  31  32 N12G23    29.87F
PLATTEVILLE    PTSUNNY   60  35  39 NW20G28   29.84F
$$

WIZ056-057-062-063-064-067-068-042000-
SOUTH CENTRAL WISCONSIN

CITY           SKY/WX    TMP DP  RH WIND       PRES   REMARKS
REEDSBURG      MOSUNNY   58  30  34 NW23G29   29.84S
BARABOO/DELLS  MOSUNNY   58  26  29 N16G26    29.83S
LONE ROCK      NOT AVBL
MINERAL POINT  MOSUNNY   61  28  29 N16G26    29.84S
MADISON        PTSUNNY   57  35  43 N16       29.81F
MIDDLETON      CLOUDY    58  34  40 N17G24    29.83R
WATERTOWN      CLOUDY    53  38  55 N14G24    29.80F
MONROE         PTSUNNY   55  34  44 N16G28    29.81S
JANESVILLE     CLOUDY    55  36  47 N14G20    29.80S
$$

WIZ051-052-058>065-066-070>072-042000-
SOUTHEAST WISCONSIN

CITY           SKY/WX    TMP DP  RH WIND       PRES   REMARKS
MILWAUKEE      CLOUDY    45  37  73 NE9G21    29.80S
WAUKESHA       CLOUDY    46  34  61 NW16G22   29.82R
MILWAUKEE/TIMM CLOUDY    48  32  53 N14G24    29.81S
RACINE         CLOUDY    44  36  73 N13       29.82R
BURLINGTON     CLOUDY    47  36  65 N14G22    29.81R
KENOSHA        CLOUDY    46  37  71 NE15      29.80R
FOND DU LAC    CLOUDY    52  36  54 N15       29.82S
SHEBOYGAN      CLOUDY    49  35  58 N15G22    29.80S
WEST BEND      CLOUDY    46  34  61 NW13G28   29.81R
JUNEAU         CLOUDY    51  37  58 N17       29.82S
$$

LSZ147-162-042000-
LAKE SUPERIOR

STATION/POSITION TIME  TEMP    WIND        PRES    WAVE
                       AIR SEA DIR/SP/G            HT/PER
                 (UTC) (F)     (DEG/KT/KT) (MB)    (FT/S)
W MID LAKE BUOY  1750   39 37  210/  2/  2 1016.3R   2/ 4
DEVILS ISLAND    1800   41     100/ 10/ 10 1016.3R
SAXON HARBOR     1800   43      50/  9/ 11 1015.6
$$

LMZ867-665-643>646-042000-
LAKE MICHIGAN

STATION/POSITION TIME  TEMP    WIND        PRES    WAVE
                       AIR SEA DIR/SP/G            HT/PER
                 (UTC) (F)     (DEG/KT/KT) (MB)    (FT/S)
CHAMBERS ISLAND  1840   44     350/ 20/ 24 1010.2R
N MID LAKE BUOY  1750   40 39  320/ 17/ 21 1008.6R   3/ 5
NORTHPORT PIER   1803   41     340/ 21     1009.8R
ALGOMA LAKESHORE 1715          340/ 20/ 27   N/A
KEWAUNEE LAKESHO 1800   47     340/ 15/ 19 1008.7R
SHEBOYGAN LAKESH 1800   46     360/ 21/ 24 1009.8R
PORT WASHINGTON  1840   49     360/  8/ 14 1010.2R
S MID LAKE BUOY  1750   41 40  360/ 25/ 31 1007.1R   8/ 7
KENOSHA   LAKESH 1800   44      30/ 13/ 17 1008.8R
$$

TC  - TEMPERATURE IN CELSIUS
VSB - VISIBILITY IN STATUTE MILES
WCI - WIND CHILL INDEX
HX  - HEAT INDEX





USA.gov is the U.S. government's official web portal to all federal, state and local government web resources and services.